CZ-3B DEB, 40849

Orbit data source: Space-Track

CZ-3B DEB, 40849 is space debris in HEO originally from a launch on Mon, 19 Dec 2011 UTC launched from the Xichang Space Center, China (XSC). Debris objects in space refer to the collection of defunct objects orbiting the Earth. Examples of debris include non-operational satellites, rocket bodies, and fragments generated from explosions, collisions, or faulty payload assembly.

Loading next visibility...
Identifier
40849, 2011-077AE
Orbit
HEO
Last TLE update
2 weeks ago
Origin
Manufacturer
CALT
Mission
Spacecraft
Bus & Motor
Unknown
Mass
Unknown
Launch date (UTC)
2011-12-19 (14 years ago)
Launch vehicle
Unknown
Launch site
Xichang Space Center, China (XSC)
Object type
Payload
Rocket body
Debris
Shape & HBR
Unknown
Radar Cross Section
Medium (>0.1 m² and <1 m²)

Expand to show TLE details & history

TLE from 2 weeks ago
0 CZ-3B DEB
1 40849U 11077AE  25167.82464458  .00000156  00000-0 -25491-2 0  9999
2 40849  25.7149  82.5845 7373264 260.9061  17.0999  1.90637110 84929
Epoch: 2025-06-16T19:47Z
TLE epoch observation values (Epoch: 2025-06-16T19:47:29.291Z)
Latitude
0.00074°
Longitude
-119.65318°
Altitude
7,864.743 km
Speed
6.439 km/s
True Right ascension
05h 30m 11s
True Declination
0° 00' 03"
Sunlit
Object was in daylight at epoch
Visualization orbit readout
Latitude
22.42519°
Longitude
-2.30047°
Altitude
27,559.281 km
Speed
2.997 km/s
Apparent Right ascension
12h 49m 03s
Apparent Declination
14° 44' 41"
Sunlit
Object is in daylight
Visualization observer readout
Local Sidereal Time
20:55:40
Azimuth
302.324° NW
Elevation
-13.059°
Doppler factor
1
Orbital elements
Apogee altitude
41,360.595 km
Perigee altitude
839.68 km
Semi-major axis
27,478.275 km
Eccentricity
0.73733
Inclination
25.7149°
RAAN
82.5845°
Arg. of periapsis
260.9061°
True anomaly
Unknown
Mean anomaly
17.0999°
Eccentric anomaly
Unknown
Mean motion
0.4765 °/min
Orbital period
755.52 mins
BSTAR
-0.0025491
Loading maneuver chart data...
Loading SW <> Apogee altitude chart data...
Loading historical data...
Loading historical data...
Loading historical data...
Loading historical data...
Loading historical data...
Loading historical data...
Loading historical data...

CZ-3B DEB Visibility forecast

Observer location: undefined°, undefined°

Span
Click to sort rows by Start time (UTC) header in descending order
Start Az.
Max El. time (UTC)
Max El. Az.
Max El.
End time (UTC)
End Az.
363 mins2025-07-01 17:11:25.173Z71.348° E2025-07-01 21:29:25.173Z90.784° ESE26.854°2025-07-01 23:14:25.173Z95.801° ESE
|